Temp
10 10 10 11 11 11 11 10 11 11 10 10 12 13 12 10 10 8 8 7 6 6 5 5 5 5 4 4 4 4 3 3 3 3 3 3 4 3 3 3 3 3 3
9 9 9 10 10 10 11 11 11 11 10 9 11 12 12 11 9 8 7 6 6 5 5 5 5 4 4 4 3 3 3 3 3 3 3 3 3 3 3 3 3 3 3
8 8 8 9 9 9 10 11 10 11 10 8 9 12 11 10 9 8 7 6 6 6 5 5 5 4 4 4 4 3 3 3 3 3 3 3 2 2 2 2 2 3 3
7 7 8 8 8 9 9 10 10 10 10 8 8 11 11 10 9 8 6 6 6 5 5 5 4 4 4 3 3 3 3 3 2 2 2 2 2 2 2 2 2 2 2
6 6 7 7 7 8 9 9 10 10 9 8 8 9 10 9 8 7 6 6 6 5 5 4 4 4 3 2 2 2 1 1 1 1 1 1 1 1 2 2 2 2 2
6 6 5 6 6 7 8 8 9 10 9 9 8 8 9 8 8 7 7 6 6 5 5 4 4 4 3 2 1 1 1 1 1 1 1 1 1 2 2 2 1 1 2
6 6 5 5 5 6 7 7 8 9 9 9 8 7 8 8 7 7 7 7 5 4 4 4 4 4 3 2 2 1 1 1 2 2 2 2 2 2 2 2 2 2 2
7 6 5 5 5 5 6 7 7 8 9 9 8 7 7 6 7 8 8 6 4 4 4 4 3 3 2 2 1 1 1 1 2 2 2 2 2 2 2 2 2 2 3
6 5 5 5 4 4 5 6 7 8 8 8 8 7 6 6 7 8 7 6 5 4 4 3 3 2 2 1 1 1 1 2 2 2 2 2 2 1 2 2 2 4 4
6 4 4 4 4 4 4 5 6 7 8 8 7 7 6 6 7 7 7 5 4 4 3 3 2 2 2 1 1 1 1 1 1 1 1 1 1 2 3 4 5 5 5
3 4 3 3 3 4 4 4 6 7 7 7 7 6 6 5 7 7 6 5 4 4 4 3 3 2 1 1 1 0 0 0 1 1 1 1 2 3 5 6 6 5 5
2 2 3 3 3 3 3 4 6 6 7 7 7 6 5 5 6 6 6 5 4 3 3 3 2 2 1 1 1 1 0 1 1 1 1 2 2 3 6 6 6 6 6
1 2 3 3 4 4 4 3 5 6 6 6 6 5 5 5 4 6 5 5 4 3 2 2 1 1 1 1 1 1 1 0 0 0 1 2 2 3 5 7 7 8 7
1 2 3 4 5 4 3 3 4 6 6 6 5 5 5 4 4 5 5 4 3 3 2 2 1 1 1 0 1 0 0 0 0 0 1 2 2 4 6 7 7 8 8
0 1 3 3 4 3 3 3 4 6 6 6 5 5 4 4 4 6 4 3 2 1 1 1 0 1 1 1 1 0 0 0 0 0 1 2 2 4 6 7 7 7 8
-1 -0 1 1 2 3 2 1 3 5 5 5 5 6 5 5 4 4 3 3 2 2 1 1 0 0 0 1 0 0 0 0 -0 0 1 1 2 3 5 7 7 8 8
-1 -1 -1 -1 1 1 1 1 3 5 5 4 4 6 6 5 4 4 3 2 2 1 1 -0 -0 -0 0 0 -0 -0 -0 -0 -1 -0 0 1 2 3 5 6 7 7 8
-1 -1 -1 -1 0 1 3 0 1 2 3 3 4 5 4 4 4 3 2 1 -0 0 0 -0 -0 -0 -0 -0 -1 -1 -1 -1 -1 -0 0 1 1 2 4 5 6 7 7
-1 -1 -1 -1 -0 2 2 2 1 2 3 3 3 3 3 3 2 1 1 0 -0 -0 -1 -1 -1 -1 -1 -1 -1 -1 -1 -1 -0 0 0 1 1 2 3 5 6 7 7
-1 -1 -1 -1 -0 1 1 1 1 2 3 3 2 2 1 1 1 0 -0 -1 -1 -0 -1 -1 -1 -1 -1 -1 -1 -1 -1 -1 -1 -0 0 0 1 1 2 4 5 6 6
-1 -1 -1 -1 -1 -0 1 2 2 3 3 2 1 1 1 0 -1 -1 -1 -1 -1 -1 -1 -1 -1 -1 -1 -1 -1 -1 -1 -1 -1 -0 -0 0 0 1 2 3 4 5 7
-1 -1 -1 -1 -2 -1 -0 0 0 2 2 0 -1 -1 -1 -1 -1 -1 -1 -1 -1 -2 -1 -1 -1 -1 -2 -2 -1 -1 -1 -1 -1 -1 -0 -0 0 1 1 2 4 5 6
-1 -1 -0 -0 -0 -0 0 1 0 -0 -1 -2 -1 -1 -1 -1 -2 -2 -2 -2 -2 -2 -2 -2 -2 -2 -2 -2 -2 -1 -1 -1 -1 -1 -1 -0 0 1 1 2 3 5 6
-2 -1 -1 -1 -1 -1 -1 -1 -2 -2 -1 -1 -2 -2 -2 -2 -2 -2 -2 -2 -2 -2 -2 -3 -2 -2 -2 -2 -1 -1 -1 -1 -1 -2 -2 -1 0 1 1 2 3 4 5
-2 -2 -2 -2 -2 -2 -2 -2 -2 -2 -2 -2 -2 -3 -3 -3 -3 -3 -3 -3 -3 -3 -3 -3 -3 -3 -2 -2 -2 -2 -1 -2 -2 -2 -2 -2 -1 0 1 1 2 4 5
-2 -2 -2 -2 -3 -3 -3 -3 -3 -3 -3 -3 -4 -4 -4 -4 -4 -4 -4 -4 -3 -3 -3 -3 -3 -3 -2 -2 -2 -2 -2 -1 -2 -2 -2 -2 -1 0 0 1 2 3 5
Height
1429 1425 1421 1419 1419 1419 1420 1424 1427 1430 1432 1432 1436 1442 1450 1455 1460 1465 1469 1473 1477 1482 1483 1485 1486 1486 1486 1487 1486 1485 1483 1482 1478 1476 1475 1473 1470 1467 1465 1462 1459 1455 1452
1424 1419 1416 1412 1413 1412 1412 1415 1420 1423 1427 1427 1430 1435 1441 1448 1454 1459 1463 1468 1471 1475 1478 1480 1480 1481 1481 1481 1481 1480 1478 1477 1475 1469 1468 1466 1463 1459 1456 1453 1449 1447 1443
1421 1414 1412 1408 1406 1405 1405 1409 1414 1417 1420 1421 1423 1428 1433 1440 1446 1452 1458 1463 1466 1469 1472 1474 1475 1477 1476 1476 1477 1475 1473 1471 1469 1466 1460 1458 1454 1452 1448 1445 1441 1437 1435
1418 1410 1410 1404 1402 1399 1400 1403 1407 1411 1413 1415 1417 1420 1426 1432 1439 1446 1452 1458 1461 1465 1468 1468 1470 1470 1471 1471 1471 1470 1468 1466 1463 1460 1455 1452 1449 1445 1442 1437 1432 1429 1424
1410 1406 1402 1399 1397 1395 1395 1396 1400 1404 1408 1411 1412 1414 1419 1425 1432 1439 1446 1451 1456 1460 1462 1463 1464 1464 1465 1465 1464 1463 1461 1459 1457 1453 1448 1443 1440 1437 1434 1430 1423 1417 1411
1408 1401 1398 1394 1389 1390 1389 1390 1392 1397 1402 1406 1408 1409 1412 1419 1426 1433 1439 1445 1450 1454 1456 1458 1459 1460 1459 1459 1458 1457 1456 1454 1452 1448 1444 1440 1433 1430 1424 1419 1412 1406 1396
1402 1397 1394 1391 1387 1388 1385 1384 1384 1390 1396 1400 1405 1406 1408 1414 1419 1426 1434 1440 1445 1449 1451 1453 1454 1456 1455 1454 1453 1452 1451 1449 1448 1444 1438 1434 1427 1422 1415 1406 1400 1394 1386
1397 1393 1388 1386 1381 1377 1377 1377 1377 1384 1388 1395 1399 1403 1406 1411 1414 1422 1429 1436 1441 1444 1446 1449 1449 1451 1450 1449 1447 1446 1445 1443 1441 1438 1434 1427 1420 1413 1406 1398 1388 1380 1373
1391 1387 1381 1375 1369 1367 1366 1371 1373 1378 1383 1389 1395 1398 1402 1406 1411 1418 1425 1431 1436 1438 1442 1443 1444 1444 1445 1443 1443 1441 1439 1437 1435 1433 1427 1419 1413 1404 1395 1387 1376 1370 1366
1380 1375 1369 1367 1363 1360 1361 1364 1368 1372 1378 1384 1390 1394 1398 1403 1408 1415 1422 1427 1431 1435 1438 1439 1439 1439 1439 1438 1438 1437 1434 1432 1429 1423 1418 1411 1404 1393 1384 1377 1371 1366 1363
1371 1368 1362 1356 1351 1353 1352 1358 1361 1366 1373 1377 1384 1389 1394 1399 1405 1412 1418 1423 1428 1432 1434 1436 1436 1435 1434 1434 1434 1433 1431 1428 1423 1419 1413 1405 1396 1387 1380 1376 1369 1364 1358
1363 1357 1351 1344 1342 1343 1343 1344 1352 1359 1366 1373 1380 1385 1390 1397 1401 1408 1415 1420 1425 1427 1430 1432 1433 1431 1431 1431 1430 1429 1427 1424 1421 1415 1410 1402 1393 1385 1379 1374 1368 1362 1358
1354 1345 1340 1335 1330 1331 1332 1337 1343 1352 1359 1367 1373 1378 1385 1394 1397 1405 1411 1417 1420 1421 1425 1427 1426 1427 1428 1427 1427 1425 1423 1422 1419 1413 1408 1402 1393 1386 1382 1375 1370 1366 1361
1344 1337 1328 1328 1324 1323 1326 1332 1333 1344 1353 1362 1368 1372 1380 1389 1393 1400 1407 1412 1415 1417 1419 1421 1421 1423 1424 1424 1423 1423 1422 1421 1417 1412 1408 1402 1394 1386 1381 1377 1371 1368 1363
1334 1331 1324 1321 1320 1320 1325 1329 1331 1341 1349 1357 1364 1368 1374 1384 1390 1396 1403 1408 1410 1413 1415 1418 1420 1421 1421 1422 1422 1421 1420 1418 1415 1411 1408 1403 1395 1389 1383 1378 1376 1372 1372
1328 1323 1321 1319 1318 1319 1324 1328 1328 1342 1350 1358 1365 1368 1377 1384 1389 1394 1400 1404 1407 1409 1411 1414 1416 1418 1419 1420 1420 1419 1417 1416 1413 1410 1407 1405 1398 1393 1388 1383 1382 1380 1381
1322 1319 1318 1315 1314 1318 1323 1323 1333 1343 1351 1359 1363 1368 1376 1382 1388 1393 1397 1400 1403 1406 1407 1410 1413 1416 1417 1418 1419 1417 1415 1415 1411 1409 1406 1402 1397 1392 1389 1386 1385 1384 1387
1316 1311 1310 1308 1310 1316 1321 1327 1334 1337 1343 1353 1362 1368 1376 1382 1386 1391 1393 1397 1400 1403 1404 1407 1411 1414 1414 1415 1417 1416 1413 1412 1410 1409 1406 1402 1397 1394 1389 1386 1384 1386 1388
1314 1311 1309 1312 1315 1319 1324 1331 1337 1342 1346 1352 1361 1369 1376 1380 1384 1388 1391 1395 1399 1402 1402 1405 1409 1411 1412 1413 1414 1413 1412 1411 1411 1408 1405 1404 1401 1395 1393 1391 1391 1390 1392
1315 1314 1313 1314 1318 1323 1328 1333 1338 1342 1347 1354 1361 1368 1373 1378 1382 1386 1390 1393 1397 1400 1401 1404 1407 1409 1410 1410 1411 1411 1411 1410 1410 1409 1405 1403 1401 1399 1395 1394 1394 1394 1395
1320 1319 1318 1320 1322 1327 1330 1334 1339 1344 1350 1357 1365 1369 1372 1377 1382 1386 1389 1392 1396 1399 1401 1402 1404 1407 1409 1408 1408 1408 1409 1409 1408 1409 1406 1403 1402 1399 1398 1395 1394 1394 1396
1323 1324 1324 1327 1329 1331 1336 1342 1346 1350 1355 1361 1365 1368 1372 1376 1381 1385 1389 1392 1395 1398 1399 1400 1402 1405 1407 1407 1406 1407 1407 1407 1407 1406 1404 1402 1399 1397 1395 1394 1391 1391 1394
1323 1327 1329 1330 1332 1335 1340 1345 1350 1354 1359 1362 1364 1367 1371 1376 1380 1384 1388 1392 1394 1396 1397 1398 1400 1403 1404 1405 1404 1405 1405 1405 1405 1404 1402 1399 1398 1397 1394 1392 1391 1392 1395
1328 1331 1334 1336 1340 1344 1346 1349 1352 1355 1358 1361 1365 1370 1373 1376 1380 1384 1387 1390 1392 1393 1395 1397 1398 1400 1401 1403 1404 1403 1403 1402 1402 1402 1401 1397 1395 1395 1394 1392 1392 1392 1393
1334 1337 1339 1342 1344 1346 1349 1351 1354 1357 1361 1364 1367 1371 1374 1377 1379 1383 1386 1387 1388 1392 1394 1395 1395 1396 1398 1400 1401 1400 1399 1399 1399 1398 1398 1396 1394 1393 1391 1390 1387 1387 1391
1341 1343 1345 1347 1349 1351 1352 1356 1359 1361 1364 1367 1370 1372 1374 1376 1379 1381 1383 1385 1387 1389 1391 1392 1393 1395 1396 1397 1396 1397 1396 1395 1395 1394 1394 1392 1390 1389 1387 1386 1385 1383 1385
Wind_Speed
23 24 22 22 27 31 36 42 40 38 38 43 44 41 38 35 31 29 27 24 22 19 18 17 16 15 17 17 17 18 20 21 27 28 27 28 29 31 31 31 31 33 35
24 25 23 20 23 27 32 37 39 38 37 40 43 40 38 36 33 30 27 22 22 22 19 17 16 14 17 17 17 18 20 21 25 31 30 29 29 32 32 34 33 31 32
27 24 25 21 21 24 27 33 36 38 37 39 42 40 38 36 34 31 27 24 22 20 18 17 16 16 17 16 17 19 21 22 25 29 34 31 32 31 32 34 35 34 36
29 25 25 22 21 21 25 29 35 37 38 39 40 41 38 36 34 31 27 24 21 19 18 18 16 16 16 16 17 19 19 22 26 28 30 34 29 34 32 34 33 36 43
34 29 25 24 22 21 24 28 32 36 38 38 39 40 38 36 34 32 29 26 22 19 18 16 16 16 16 18 18 19 19 22 25 29 29 34 33 34 31 35 42 48 47
31 32 32 29 22 23 24 26 31 34 37 38 38 38 37 36 33 32 30 26 22 19 18 16 14 16 17 16 17 19 20 22 25 27 30 34 38 37 43 45 46 47 47
30 30 35 28 24 25 25 27 31 33 37 37 37 36 37 35 33 32 28 22 20 17 15 14 13 13 17 15 16 17 19 19 23 29 34 35 37 41 49 53 49 46 44
30 31 33 31 26 25 24 28 29 32 37 37 36 35 34 32 33 29 26 24 18 15 14 14 15 14 14 15 15 17 19 20 24 26 29 34 40 45 45 47 48 45 43
31 31 32 36 31 26 25 29 31 32 36 35 35 34 35 33 30 27 25 25 19 15 14 14 14 13 13 13 13 18 21 23 23 24 31 33 34 40 37 36 34 31 26
31 40 40 37 32 31 28 30 32 33 36 35 34 35 33 29 29 27 25 20 14 13 13 12 15 16 14 13 14 16 22 24 27 32 31 33 38 36 30 23 22 23 13
40 37 42 40 33 32 30 32 32 33 36 37 36 35 32 28 27 27 23 19 14 13 11 10 10 13 16 14 14 16 20 26 27 25 31 36 38 34 18 14 14 11 15
38 41 40 38 32 30 33 31 31 34 35 37 36 34 30 27 24 26 22 19 15 12 10 8 8 14 17 15 15 18 20 22 19 26 28 36 37 30 18 14 20 13 15
39 43 40 33 28 26 33 34 33 35 37 38 37 35 33 28 24 22 20 18 19 17 10 11 16 17 16 13 11 19 18 16 21 24 28 34 33 27 23 17 14 12 10
42 38 36 25 17 22 29 32 34 37 39 38 37 36 33 30 25 23 20 18 16 15 14 13 11 9 11 11 12 14 14 14 20 20 26 31 30 23 21 18 14 10 15
38 31 29 17 16 21 25 36 32 36 39 38 37 39 37 31 25 19 18 14 11 9 9 7 6 9 7 8 11 14 14 13 18 21 25 29 29 22 18 20 12 11 20
29 23 21 18 17 20 28 27 26 32 35 36 36 36 29 24 22 19 19 16 16 14 10 6 7 7 8 8 9 13 14 13 16 19 23 24 27 21 18 15 8 6 22
24 17 18 19 17 20 27 29 29 32 34 35 34 29 25 22 18 17 16 15 14 12 11 6 6 7 7 8 8 10 13 13 15 16 20 22 26 20 15 15 6 6 22
18 13 16 15 20 19 25 34 33 40 43 35 27 24 19 18 16 15 13 11 8 9 9 6 6 6 6 6 8 9 12 12 13 14 17 19 23 21 15 13 7 3 19
12 10 13 16 16 27 30 32 35 40 39 33 26 21 18 17 15 12 12 10 7 6 4 5 6 5 6 7 8 10 10 12 10 13 17 16 18 20 15 10 6 2 8
1 7 19 19 26 31 34 33 35 36 31 26 22 19 18 14 12 9 8 7 7 7 7 7 7 6 7 8 8 8 9 10 10 11 17 17 15 18 17 10 5 6 8
12 15 21 23 30 29 31 30 28 26 23 20 18 15 14 12 10 8 6 7 8 7 7 7 6 6 7 7 7 6 7 8 11 10 15 17 16 16 16 12 8 8 10
14 22 24 24 28 29 26 23 20 21 18 16 14 14 13 11 9 6 6 8 8 8 8 7 5 5 5 6 7 7 9 10 11 11 13 17 18 16 16 15 10 9 12
22 16 20 22 20 18 17 15 14 13 13 12 10 7 8 8 7 8 9 9 8 8 6 5 5 5 5 5 6 9 10 11 13 12 12 18 19 17 17 17 13 12 17
22 22 20 17 18 17 14 14 12 12 11 10 9 8 7 7 7 8 9 9 9 7 6 6 5 5 6 6 6 8 10 12 13 14 15 19 19 17 17 18 14 13 19
18 18 17 16 14 13 13 11 11 12 11 10 10 8 8 7 7 9 11 11 10 7 6 7 9 6 4 6 8 11 14 14 15 15 16 19 18 18 18 19 15 14 19
15 13 10 11 11 11 12 11 12 12 11 10 9 7 6 6 7 6 7 8 8 7 7 5 2 4 6 5 10 11 14 15 17 16 19 18 18 17 18 18 14 16 21
Wind_Direction
318 316 296 272 253 243 237 229 225 218 213 219 224 217 215 216 216 214 217 216 214 218 222 226 233 243 254 261 264 265 270 274 281 287 289 291 292 290 291 289 290 289 284
320 320 308 283 260 249 238 230 224 219 213 212 219 214 214 213 214 212 212 210 211 214 221 229 240 248 259 267 271 272 274 279 282 289 292 294 289 292 289 291 292 289 282
318 321 315 295 270 253 240 231 224 218 212 206 211 209 210 212 213 211 211 207 211 215 221 226 238 248 258 264 267 272 276 278 283 287 292 293 296 295 295 291 290 286 281
314 321 311 308 283 257 243 232 224 218 211 205 205 209 211 212 212 208 204 206 211 216 220 229 239 250 259 263 268 273 278 283 286 290 288 294 295 296 297 293 290 287 294
313 319 315 308 293 265 243 233 225 218 211 205 200 206 208 210 208 204 203 206 207 215 224 232 251 260 257 256 265 272 278 284 285 293 295 298 300 301 295 294 292 299 301
306 315 312 304 300 272 247 232 224 218 211 204 199 199 200 202 205 204 208 210 211 213 223 235 247 260 268 271 275 277 280 284 287 293 295 295 298 295 298 298 295 292 288
304 306 309 304 290 273 248 229 223 217 209 204 199 195 197 203 200 204 208 212 210 216 225 239 248 255 263 273 280 283 287 286 288 293 294 296 296 295 299 302 297 292 287
303 305 306 299 286 273 257 235 220 217 207 204 197 194 193 194 202 206 204 209 209 216 226 236 247 254 263 269 277 286 291 294 298 298 297 294 292 299 300 298 295 292 291
299 306 305 300 292 278 255 238 218 215 206 203 196 192 191 193 204 201 202 208 211 220 230 241 249 258 267 273 280 291 303 303 306 299 291 302 304 305 305 306 302 302 295
300 306 303 297 284 275 249 233 219 209 204 198 193 190 191 192 202 199 202 201 202 215 232 245 264 281 286 266 282 295 299 308 302 312 318 312 321 324 327 328 332 321 289
302 302 298 295 283 262 238 222 212 204 201 195 191 186 186 189 197 198 202 197 198 213 228 242 257 271 281 289 291 293 299 306 319 322 318 327 332 337 337 338 328 305 293
301 307 300 296 278 254 233 203 206 200 198 191 185 179 182 183 198 196 203 203 201 208 223 240 259 264 271 285 290 298 306 319 327 319 332 335 337 341 345 339 340 295 293
308 308 303 295 277 242 218 200 196 196 192 187 181 172 174 177 193 195 202 208 213 222 224 238 243 252 274 291 304 298 319 326 315 328 334 337 337 342 347 355 341 343 345
309 309 304 290 260 214 215 201 189 191 187 185 178 169 166 174 190 194 198 208 218 234 243 259 274 278 290 299 312 311 309 322 319 331 335 338 342 345 352 360 15 359 96
304 305 298 273 229 206 204 196 187 189 185 183 176 168 170 178 189 194 195 197 204 217 213 220 253 279 298 290 295 303 314 328 326 337 336 341 346 346 354 5 14 359 117
306 296 281 254 220 204 193 187 175 184 185 182 172 179 183 183 183 186 187 194 203 217 230 236 253 269 280 285 293 303 314 329 326 338 334 344 346 348 351 12 23 122 126
303 287 258 249 202 186 182 168 169 175 172 166 166 180 179 179 179 185 193 201 220 223 226 223 252 266 267 276 292 300 311 325 332 340 330 345 349 350 351 10 34 104 161
303 284 244 217 175 184 167 161 156 148 149 151 159 162 166 176 180 184 188 190 201 220 223 213 235 248 252 269 294 303 300 319 335 335 332 344 350 355 349 358 18 81 154
280 257 230 164 167 159 150 146 147 149 150 147 151 159 169 171 169 178 186 177 170 197 209 210 219 225 247 268 286 303 322 336 345 335 325 339 350 356 348 343 359 207 182
168 151 157 135 135 138 139 136 137 147 145 147 155 164 165 164 167 174 176 175 178 194 200 214 212 226 250 267 287 306 328 329 341 330 322 335 341 355 351 328 319 187 191
118 121 115 120 137 133 132 134 136 137 140 149 155 164 162 154 145 151 165 178 184 191 198 206 210 231 256 270 281 302 313 320 325 329 322 326 331 343 351 329 294 217 180
150 131 128 124 122 127 129 133 134 136 147 148 150 153 153 149 152 153 174 180 185 196 198 203 208 234 260 275 283 288 293 306 317 321 316 315 321 329 339 337 292 235 189
180 165 140 136 136 136 136 137 136 137 137 137 144 150 162 165 178 174 188 187 195 193 194 210 219 249 264 278 284 284 291 301 302 315 308 307 316 321 325 330 308 243 205
118 133 132 138 137 131 131 129 125 127 128 130 137 150 154 160 175 186 190 196 201 195 204 229 244 256 271 272 273 284 295 290 294 303 302 308 308 310 315 316 302 246 214
106 109 112 117 120 123 122 120 130 133 137 154 152 162 162 169 176 187 197 204 206 201 215 235 249 256 269 265 267 263 273 288 298 300 301 304 302 305 308 309 299 251 219
96 96 104 122 129 132 133 138 142 140 142 144 147 148 149 152 166 184 208 210 204 212 232 232 242 264 278 278 266 279 284 286 287 289 297 299 298 295 306 301 287 248 224